This demonstration page uses our WeatherBlox Daily Observations layout. Learn more.

Left ArrowRight Arrow

40.92945, -100.16068

Hourly Observations for September 18, 2019

Temp ( °F °C ) Dew Point ( °F °C ) Humidity (%) Winds ( mph kmh ) Pressure ( in mb ) Visibility ( mi km ) Precip ( " mm )
12:15 am 00:15 Clear 76 24.5 62 16.7 62 62 S 16 26 29.69 1006 10 16 0.00 0.00
12:35 am 00:35 Clear 76 24.2 62 16.6 63 63 S 17 28 29.71 1006 7 11 0.00 0.00
12:55 am 00:55 Clear 75 24 62 16.6 63 63 S 17 28 29.71 1006 7 11 0.00 0.00
1:15 am 01:15 Clear 75 23.7 62 16.5 64 64 S 16 26 29.71 1006 7 11 0.00 0.00
1:35 am 01:35 Clear 74 23.3 62 16.5 66 66 S 14 22 29.71 1006 7 11 0.00 0.00
1:55 am 01:55 Clear 73 23 62 16.5 67 67 S 14 22 29.72 1006 7 11 0.00 0.00
2:15 am 02:15 Clear 73 22.5 62 16.5 69 69 S 13 20 29.73 1007 7 11 0.00 0.00
2:35 am 02:35 Clear 72 22.3 62 16.5 70 70 S 9 15 29.73 1007 7 11 0.00 0.00
2:55 am 02:55 Clear 69 20.6 62 16.6 78 78 N 8 13 29.77 1008 10 16 0.00 0.00
8:55 am 08:55 Sunny 65 18.2 50 10.2 60 60 NNW 6 9 29.90 1012 10 16 0.00 0.00
9:15 am 09:15 Sunny 67 19.3 48 9.1 52 52 N 8 13 29.90 1012 10 16 0.00 0.00
9:35 am 09:35 Sunny 69 20.4 45 7.4 43 43 N 12 19 29.90 1012 10 16 0.00 0.00
9:55 am 09:55 Sunny 70 21.1 44 6.5 39 39 N 12 19 29.89 1012 10 16 0.00 0.00
10:15 am 10:15 Sunny 70 20.9 43 5.9 38 38 NNE 14 22 29.90 1013 10 16 0.00 0.00
10:35 am 10:35 Sunny 72 22 43 6.3 36 36 NNE 15 24 29.90 1012 10 16 0.00 0.00
10:55 am 10:55 Sunny 73 22.7 44 6.4 35 35 NNE 18 30 29.89 1012 10 16 0.00 0.00
11:15 am 11:15 Sunny 73 23 44 6.7 35 35 NNE 15 24 29.89 1012 10 16 0.00 0.00
11:35 am 11:35 Sunny 74 23.1 45 7.4 37 37 NNE 15 24 29.90 1012 10 16 0.00 0.00
11:55 am 11:55 Sunny 76 24.2 49 9.3 39 39 NNE 12 19 29.90 1012 10 16 0.00 0.00
12:15 pm 12:15 Sunny 73 22.9 49 9.3 42 42 NNE 12 19 29.91 1013 10 16 0.00 0.00
12:35 pm 12:35 Sunny 76 24.4 49 9.4 39 39 NNE 12 19 29.89 1012 10 16 0.00 0.00
12:55 pm 12:55 Hazy 76 24.4 49 9.7 39 39 NE 12 19 29.89 1012 5 8 0.00 0.00
1:15 pm 13:15 Hazy 76 24.4 51 10.7 42 42 NE 10 17 29.89 1012 5 8 0.00 0.00
1:35 pm 13:35 Sunny 77 24.9 51 10.8 41 41 NE 13 20 29.88 1012 10 16 0.00 0.00
1:55 pm 13:55 Sunny 77 25 52 11 42 42 NE 10 17 29.87 1012 10 16 0.00 0.00
2:15 pm 14:15 Sunny 78 25.6 52 11 40 40 ENE 13 20 29.86 1011 10 16 0.00 0.00
2:35 pm 14:35 Sunny 78 25.7 52 11.3 41 41 NE 9 15 29.85 1011 10 16 0.00 0.00
2:55 pm 14:55 Sunny 79 25.9 52 11.3 40 40 NE 7 11 29.86 1011 10 16 0.00 0.00
3:15 pm 15:15 Sunny 80 26.5 54 12 41 41 ENE 10 17 29.85 1011 10 16 0.00 0.00
3:35 pm 15:35 Sunny 78 25.7 53 11.8 42 42 ENE 6 9 29.85 1011 10 16 0.00 0.00
3:55 pm 15:55 Sunny 80 26.6 54 12.2 41 41 ENE 10 17 29.84 1010 10 16 0.00 0.00
4:15 pm 16:15 Sunny 80 26.5 54 12.4 42 42 NE 7 11 29.84 1010 10 16 0.00 0.00
4:35 pm 16:35 Sunny 80 26.6 55 12.7 42 42 ENE 8 13 29.84 1010 10 16 0.00 0.00
4:55 pm 16:55 Sunny 80 26.6 55 12.8 42 42 ENE 9 15 29.83 1010 10 16 0.00 0.00
5:15 pm 17:15 Sunny 80 26.7 55 12.7 42 42 NE 7 11 29.83 1010 10 16 0.00 0.00
5:35 pm 17:35 Sunny 80 26.5 55 12.8 43 43 ENE 9 15 29.83 1010 10 16 0.00 0.00
5:55 pm 17:55 Sunny 79 26.2 55 12.9 44 44 ENE 9 15 29.83 1010 10 16 0.00 0.00
6:15 pm 18:15 Sunny 78 25.8 56 13.2 46 46 NE 8 13 29.83 1010 10 16 0.00 0.00
6:35 pm 18:35 Sunny 78 25.3 57 13.8 49 49 NE 7 11 29.84 1010 10 16 0.00 0.00
6:55 pm 18:55 Sunny 76 24.6 58 14.4 53 53 NE 6 9 29.84 1011 10 16 0.00 0.00
7:15 pm 19:15 Sunny 74 23.6 59 14.8 58 58 NE 5 7 29.85 1011 10 16 0.00 0.00
7:35 pm 19:35 Sunny 73 22.5 59 15 63 63 NE 5 7 29.86 1011 10 16 0.00 0.00
7:55 pm 19:55 Clear 70 20.9 59 15.1 70 70 NE 5 7 29.86 1011 10 16 0.00 0.00
8:15 pm 20:15 Clear 68 20 59 15.1 74 74 NNE 5 7 29.88 1012 10 16 0.00 0.00
8:35 pm 20:35 Clear 66 18.8 59 15.2 80 80 NNE 3 6 29.89 1012 10 16 0.00 0.00
8:55 pm 20:55 Clear 66 18.9 59 15 78 78 Calm 29.90 1013 10 16 0.00 0.00
9:15 pm 21:15 Clear 65 18.5 59 15 80 80 ENE 5 7 29.91 1013 10 16 0.00 0.00
9:35 pm 21:35 Clear 64 18 58 14.5 80 80 ENE 5 7 29.91 1013 10 16 0.00 0.00
9:55 pm 21:55 Clear 65 18.2 58 14.5 79 79 NNE 5 7 29.91 1013 10 16 0.00 0.00
10:15 pm 22:15 Clear 64 17.5 58 14.5 83 83 NE 3 6 29.91 1013 10 16 0.00 0.00
10:35 pm 22:35 Clear 63 17.4 58 14.3 82 82 Calm 29.91 1013 10 16 0.00 0.00
10:55 pm 22:55 Clear 63 17.3 58 14.4 83 83 Calm 29.92 1013 10 16 0.00 0.00
11:15 pm 23:15 Clear 64 17.7 57 14.1 80 80 Calm 29.91 1013 10 16 0.00 0.00
11:35 pm 23:35 Clear 64 17.6 57 14.1 80 80 Calm 29.90 1013 10 16 0.00 0.00
11:55 pm 23:55 Clear 62 16.5 58 14.3 87 87 N 3 6 29.91 1013 10 16 0.00 0.00

Powered by AerisWeather